When you browse on this site, cookies collect data to enhance your experience and personalize the content and advertising you see.
Visit our Privacy Policy to learn more. By continuing to use the site, you agree to this use of cookies and data.
  • In United Kingdom
  • List of Countries
  • For 7 days
  • Water Temperature
  • Satellite Maps
  • Weather Map
  • Weather Widgets
  • user-avatar
    Login

    Hourly Weather Yubileynyy

    Today, 23 April, Tuesday

    Time Temperature Precipitation Wind Pressure Humidity
    00:00 +7°C° 0 mm 2 mps 751 mmHg 71%
    01:00 +6°C° 0 mm 2 mps 751 mmHg 72%
    02:00 +6°C° 0 mm 2 mps 751 mmHg 73%
    03:00 +5°C° 0 mm 2 mps 751 mmHg 74%
    04:00 +5°C° 0.1 mm 2 mps 751 mmHg 75%
    05:00 +6°C° 0.1 mm 2 mps 751 mmHg 76%
    06:00 +6°C° 0.1 mm 2 mps 752 mmHg 77%
    07:00 +7°C° 0 mm 3 mps 752 mmHg 74%
    08:00 +8°C° 0 mm 3 mps 752 mmHg 72%
    09:00 +9°C° 0 mm 3 mps 752 mmHg 68%
    10:00 +10°C° 0 mm 3 mps 752 mmHg 66%
    11:00 +10°C° 0 mm 3 mps 752 mmHg 64%
    12:00 +11°C° 0 mm 3 mps 752 mmHg 62%
    13:00 +11°C° 0.1 mm 4 mps 752 mmHg 58%
    14:00 +11°C° 0.1 mm 4 mps 752 mmHg 55%
    15:00 +12°C° 0.1 mm 4 mps 752 mmHg 51%
    16:00 +11°C° 0 mm 3 mps 752 mmHg 53%
    17:00 +11°C° 0 mm 3 mps 752 mmHg 56%
    18:00 +10°C° 0 mm 2 mps 752 mmHg 58%
    19:00 +9°C° 0 mm 2 mps 752 mmHg 63%
    20:00 +8°C° 0 mm 1 mps 752 mmHg 67%
    21:00 +7°C° 0 mm 1 mps 752 mmHg 71%
    22:00 +6°C° 0 mm 1 mps 752 mmHg 72%
    23:00 +6°C° 0 mm 1 mps 752 mmHg 73%

    Tomorrow, 24 April, Wednesday

    Time Temperature Precipitation Wind Pressure Humidity
    00:00 +6°C° 0 mm 1 mps 752 mmHg 74%
    01:00 +6°C° 0 mm 1 mps 752 mmHg 77%
    02:00 +4°C° 0 mm 2 mps 752 mmHg 80%
    03:00 +4°C° 0 mm 2 mps 752 mmHg 83%
    04:00 +3°C° 0 mm 3 mps 751 mmHg 81%
    05:00 +4°C° 0 mm 3 mps 751 mmHg 79%
    06:00 +5°C° 0 mm 4 mps 751 mmHg 78%
    07:00 +7°C° 0 mm 4 mps 751 mmHg 72%
    08:00 +10°C° 0 mm 4 mps 751 mmHg 67%
    09:00 +12°C° 0 mm 5 mps 750 mmHg 62%
    10:00 +13°C° 0 mm 5 mps 750 mmHg 59%
    11:00 +15°C° 0 mm 5 mps 750 mmHg 55%
    12:00 +16°C° 0 mm 5 mps 750 mmHg 52%
    13:00 +17°C° 0 mm 5 mps 750 mmHg 51%
    14:00 +17°C° 0 mm 5 mps 750 mmHg 49%
    15:00 +19°C° 0 mm 5 mps 750 mmHg 48%
    16:00 +17°C° 0 mm 5 mps 750 mmHg 52%
    17:00 +17°C° 0 mm 4 mps 750 mmHg 56%
    18:00 +17°C° 0 mm 3 mps 750 mmHg 60%
    19:00 +14°C° 0 mm 3 mps 750 mmHg 65%
    20:00 +14°C° 0 mm 2 mps 750 mmHg 71%
    21:00 +13°C° 0 mm 2 mps 750 mmHg 76%
    22:00 +12°C° 0 mm 2 mps 750 mmHg 80%
    23:00 +10°C° 0 mm 3 mps 751 mmHg 83%

    Day after tomorrow, 25 April, Thursday

    Time Temperature Precipitation Wind Pressure Humidity
    00:00 +10°C° 0 mm 3 mps 751 mmHg 87%
    01:00 +9°C° 0 mm 3 mps 751 mmHg 89%
    02:00 +8°C° 0 mm 2 mps 751 mmHg 91%
    03:00 +7°C° 0 mm 2 mps 751 mmHg 94%
    04:00 +7°C° 0 mm 3 mps 752 mmHg 91%
    05:00 +7°C° 0 mm 3 mps 752 mmHg 89%
    06:00 +8°C° 0 mm 3 mps 752 mmHg 87%
    07:00 +9°C° 0 mm 3 mps 752 mmHg 78%
    08:00 +10°C° 0 mm 4 mps 752 mmHg 70%
    09:00 +11°C° 0 mm 4 mps 753 mmHg 61%
    10:00 +12°C° 0 mm 4 mps 752 mmHg 57%
    11:00 +13°C° 0 mm 5 mps 752 mmHg 53%
    12:00 +14°C° 0 mm 5 mps 752 mmHg 49%
    13:00 +13°C° 0 mm 5 mps 752 mmHg 49%
    14:00 +13°C° 0 mm 5 mps 752 mmHg 50%
    15:00 +13°C° 0 mm 5 mps 752 mmHg 51%
    16:00 +12°C° 0 mm 5 mps 752 mmHg 52%
    17:00 +11°C° 0 mm 4 mps 753 mmHg 54%
    18:00 +11°C° 0 mm 4 mps 753 mmHg 55%
    19:00 +9°C° 0 mm 3 mps 753 mmHg 59%
    20:00 +8°C° 0 mm 2 mps 753 mmHg 64%
    21:00 +7°C° 0 mm 1 mps 753 mmHg 69%
    22:00 +7°C° 0 mm 1 mps 753 mmHg 70%
    23:00 +6°C° 0 mm 1 mps 753 mmHg 71%

    26 April, Friday

    Time Temperature Precipitation Wind Pressure Humidity
    00:00 +6°C° 0 mm 1 mps 753 mmHg 72%
    01:00 +5°C° 0 mm 2 mps 753 mmHg 72%
    02:00 +6°C° 0 mm 2 mps 753 mmHg 73%
    03:00 +6°C° 0 mm 2 mps 753 mmHg 73%
    04:00 +6°C° 0 mm 2 mps 753 mmHg 72%
    05:00 +5°C° 0 mm 3 mps 753 mmHg 71%
    06:00 +4°C° 0 mm 3 mps 754 mmHg 70%
    07:00 +5°C° 0 mm 3 mps 754 mmHg 62%
    08:00 +7°C° 0 mm 3 mps 754 mmHg 55%
    09:00 +8°C° 0 mm 3 mps 754 mmHg 48%
    10:00 +9°C° 0 mm 3 mps 754 mmHg 44%
    11:00 +9°C° 0 mm 3 mps 754 mmHg 40%
    12:00 +10°C° 0 mm 3 mps 754 mmHg 36%
    13:00 +11°C° 0 mm 3 mps 754 mmHg 35%
    14:00 +11°C° 0 mm 3 mps 753 mmHg 34%
    15:00 +13°C° 0 mm 2 mps 753 mmHg 33%
    16:00 +12°C° 0 mm 2 mps 753 mmHg 37%
    17:00 +12°C° 0 mm 1 mps 753 mmHg 41%
    18:00 +11°C° 0 mm 1 mps 752 mmHg 44%
    19:00 +10°C° 0 mm 1 mps 752 mmHg 47%
    20:00 +7°C° 0 mm 2 mps 752 mmHg 49%
    21:00 +6°C° 0 mm 2 mps 752 mmHg 52%
    22:00 +6°C° 0 mm 2 mps 752 mmHg 54%
    23:00 +5°C° 0 mm 2 mps 751 mmHg 56%

    27 April, Saturday

    Time Temperature Precipitation Wind Pressure Humidity
    00:00 +3°C° 0 mm 3 mps 751 mmHg 58%
    01:00 +3°C° 0 mm 3 mps 750 mmHg 59%
    02:00 +3°C° 0 mm 3 mps 750 mmHg 60%
    03:00 +3°C° 0 mm 3 mps 749 mmHg 61%
    04:00 +4°C° 0 mm 3 mps 749 mmHg 65%
    05:00 +5°C° 0 mm 3 mps 748 mmHg 68%
    06:00 +6°C° 0 mm 4 mps 748 mmHg 72%
    07:00 +8°C° 0 mm 4 mps 747 mmHg 71%
    08:00 +11°C° 0 mm 4 mps 747 mmHg 70%
    09:00 +13°C° 0 mm 4 mps 746 mmHg 69%
    10:00 +14°C° 0.1 mm 5 mps 746 mmHg 62%
    11:00 +16°C° 0.1 mm 5 mps 745 mmHg 55%
    12:00 +17°C° 0.1 mm 6 mps 745 mmHg 48%
    13:00 +17°C° 0.1 mm 5 mps 744 mmHg 48%
    14:00 +17°C° 0.1 mm 5 mps 744 mmHg 48%
    15:00 +18°C° 0.1 mm 4 mps 743 mmHg 48%
    16:00 +17°C° 0 mm 4 mps 743 mmHg 50%
    17:00 +17°C° 0 mm 3 mps 742 mmHg 52%
    18:00 +16°C° 0 mm 3 mps 742 mmHg 54%
    19:00 +14°C° 0.4 mm 3 mps 742 mmHg 62%
    20:00 +12°C° 0.4 mm 3 mps 742 mmHg 69%
    21:00 +11°C° 0.4 mm 3 mps 741 mmHg 77%
    22:00 +10°C° 0 mm 3 mps 741 mmHg 80%
    23:00 +10°C° 0 mm 3 mps 741 mmHg 83%

    28 April, Sunday

    Time Temperature Precipitation Wind Pressure Humidity
    00:00 +9°C° 0 mm 2 mps 741 mmHg 86%
    01:00 +9°C° 0 mm 3 mps 741 mmHg 87%
    02:00 +8°C° 0 mm 3 mps 741 mmHg 89%
    03:00 +6°C° 0 mm 4 mps 741 mmHg 90%
    04:00 +5°C° 0.1 mm 4 mps 742 mmHg 87%
    05:00 +5°C° 0.1 mm 5 mps 742 mmHg 84%
    06:00 +3°C° 0.1 mm 6 mps 743 mmHg 81%
    07:00 +3°C° 0.4 mm 5 mps 744 mmHg 77%
    08:00 +2°C° 0.4 mm 5 mps 745 mmHg 73%
    09:00 +2°C° 0.4 mm 5 mps 745 mmHg 70%
    10:00 +3°C° 0 mm 5 mps 746 mmHg 61%
    11:00 +5°C° 0 mm 5 mps 746 mmHg 52%
    12:00 +5°C° 0 mm 6 mps 747 mmHg 44%
    13:00 +5°C° 0 mm 6 mps 748 mmHg 42%
    14:00 +5°C° 0 mm 6 mps 748 mmHg 39%
    15:00 +5°C° 0 mm 6 mps 748 mmHg 37%
    16:00 +4°C° 0 mm 6 mps 749 mmHg 39%
    17:00 +3°C° 0 mm 5 mps 749 mmHg 40%
    18:00 +2°C° 0 mm 5 mps 750 mmHg 42%
    19:00 +1°C° 0 mm 4 mps 751 mmHg 47%
    20:00 +1°C° 0 mm 3 mps 751 mmHg 51%
    21:00 -1°C° 0 mm 2 mps 752 mmHg 56%
    22:00 -1°C° 0 mm 2 mps 752 mmHg 56%
    23:00 -2°C° 0 mm 2 mps 753 mmHg 57%
    Show more